Find Starlink 35009

NORAD ID: 65449 Int'l Des: 2025-194 Owner: SPXS Country: US Constellation: starlink operational
LEOCIRCULARRETROGRADESSO

当前视图

正在加载3D地球...

About Starlink 35009

Starlink 35009 (NORAD 65449) is a starlink constellation satellite (v2 mini) launched Sep 3, 2025 by SPXS of US. It operates in LEO, CIRCULAR, RETROGRADE, SSO orbit with a mass of 575.00 kg.

即将过境

Passes for default location (London). Set your location on the main map for personalized predictions.

高度历史

Loading altitude history...

两行轨道根数

1 65449U 25194R 26263.03852039 .00016469 00000-0 51126-3 0 9992
2 65449 97.2848 112.6410 0001706 91.9853 268.1585 15.33450271 58999
Epoch: Sep 20, 2026 • Age: 15 hours

当前状态

高度 476.5 km
远地点 / 近地点 N/A
速度 7.63 km/s
星下点 -27.63°S, 51.06°E
发射日期 Sep 3, 2025
运行时间 1 year
类型 internet

技术详情

分类 Payload
质量 575.00 kg
干质量 530.00 kg
长度 0.30 m
跨度 29.00 m
形状 ? Box + pan
制造商 SPXS
平台类型 Starlink V2MO
阶段状态 In Orbit
所有者/国家 SPXS/US

Most Searched